Location: Knowlton
(51.2333°N, 1.2667°E)
Time: 20:24:09
(UTC+00:00)

Daily predictions for brighter satellites

Satellite Brightness Start Highest point End
(mag) Time Altitude Azimuth Time Altitude Azimuth Time Altitude Azimuth
Exosat Rocket 4.1 18:36:25 10° S 18:41:23 46° ESE 18:47:41 10° NE
Meteor 1-11 Rocket 4.2 18:39:00 10° SSW 18:44:54 73° WNW 18:50:42 10° N
USA 186 2.7 18:42:35 10° SE 18:45:16 27° ENE 18:48:00 10° N
Meteor 1-21 4.3 18:41:56 10° N 18:47:31 61° ENE 18:53:06 10° SSE
Okean 3 3.4 18:43:26 10° N 18:47:39 69° ENE 18:51:52 10° SSE
COSMO-SKYMED 1 3.8 18:45:15 10° N 18:49:27 49° WNW 18:53:38 10° SW
USA 229 DEB 4.3 18:44:46 10° WSW 18:51:04 59° NW 18:58:01 10° NE
USA 229 4.3 18:44:51 10° WSW 18:51:10 59° NW 18:58:06 10° NE
Cosmos 1707 2.6 18:48:57 10° N 18:52:47 85° E 18:56:34 10° S
Cosmos 2322 3.8 18:47:56 10° NNW 18:53:39 87° WSW 18:59:18 10° SSE
Okean 1-7 3.0 18:49:50 10° N 18:54:15 79° E 18:58:35 10° SSE
CZ-4B R/B 3.4 18:49:03 10° SSE 18:54:44 86° WSW 19:00:24 10° NNW
Cosmos 1954 Rocket 4.2 18:49:35 10° NNW 18:54:50 80° WSW 19:00:06 10° SSE
Cosmos 1727 Rocket 4.1 18:49:52 10° S 18:56:11 86° E 19:02:30 10° N
Cosmos 1674 2.5 18:53:27 10° N 18:57:11 78° E 19:00:54 10° SSE
Lacrosse 5 rocket 3.3 18:57:05 10° SE 18:58:10 11° ESE 18:59:08 10° ESE
Cosmos 1980 4.2 18:53:27 10° NNW 18:58:52 42° NE 19:04:14 10° ESE
Cosmos 1805 4.4 18:56:02 10° SE 18:59:02 23° E 19:02:04 10° NE
Cosmos 2219 Rocket 2.7 18:54:36 10° NW 19:00:15 65° WSW 19:05:51 10° SSE
Cosmos 2333 Rocket 3.5 18:56:40 10° NW 19:02:08 44° WSW 19:07:34 10° S
Cosmos 1933 Rocket 3.5 18:59:00 10° S 19:03:15 62° E 19:07:34 10° NNE
Cosmos 1975 3.0 18:59:32 10° S 19:03:21 48° E 19:07:12 10° NNE
SJ-6B 2.8 19:00:14 10° SSE 19:04:06 60° ENE 19:07:53 10° N
CZ-4C R/B 4.3 19:00:46 10° N 19:04:24 50° WNW 19:08:13 10° SW
Cosmos 2233 Rocket 4.4 19:01:09 10° N 19:06:56 41° ENE 19:12:43 10° SE
Meteor 2-9 Rocket 4.2 19:01:55 10° SSW 19:07:25 87° WNW 19:12:50 10° NNE
Cosmos 1726 3.0 19:05:32 10° SSE 19:08:27 25° E 19:11:23 10° NE
CSL-04 Debris 4.2 19:04:21 10° SSE 19:09:41 63° ENE 19:15:05 10° N
BREEZE-M DEB (TANK) 4.2 19:07:05 10° W 19:10:50 20° SW 19:12:59 10° S
Cosmos 2061 Rocket 4.2 19:04:51 10° N 19:11:12 55° ENE 19:17:29 10° SSE
USA 267 4.4 19:05:22 10° SSE 19:11:27 40° SW 19:17:35 10° WNW
Cosmos 1869 Rocket 3.9 19:08:52 10° SSE 19:12:56 42° E 19:17:01 10° NNE
COSMOS 2428 2.9 19:07:38 10° NNW 19:13:23 81° WSW 19:19:07 10° SSE
Cosmos 1900 4.4 19:08:35 10° SSW 19:13:24 54° ESE 19:18:12 10° NE
SL-14 R/B 3.6 19:12:03 10° N 19:15:43 41° ENE 19:19:21 10° SE
Cosmos 1459 Rocket 4.1 19:12:23 10° NNW 19:18:28 81° W 19:24:32 10° S
USA 281 3.5 19:13:57 10° NNE 19:20:32 76° WNW 19:27:05 10° SW
NOSS 3-2 (A) 4.2 19:13:36 10° NW 19:20:56 79° SW 19:29:31 10° SE
Cosmos 2297 Rocket 3.1 19:16:42 10° SSE 19:21:10 25° ESE 19:25:40 10° NE
ATLAS 3B R/B 4.3 19:15:19 10° WNW 19:21:39 31° N 19:28:17 10° NE
Cosmos 1867 4.2 19:19:42 10° S 19:24:29 33° ESE 19:29:18 10° NE
IGS 5A 4.1 19:23:09 10° S 19:27:13 58° W 19:31:19 10° NNW
Cosmos 1725 Rocket 3.9 19:22:07 10° N 19:28:21 79° E 19:34:32 10° SSE
MINOTAUR 4 R/B 4.2 19:25:47 10° N 19:29:13 71° WNW 19:32:36 10° SSW
Resurs 01 Rocket 2.1 19:25:55 15° SE 19:29:15 41° ENE 19:33:24 10° N
CZ-4C R/B 3.7 19:24:54 10° NW 19:30:50 37° NNE 19:36:50 14° E
Cosmos 1371 Rocket 4.5 19:25:43 10° SW 19:30:57 65° WNW 19:36:11 10° NNE
CENTAUR R/B 3.5 19:23:20 10° NW 19:31:23 70° SW 19:40:21 10° SSE
NOSS 3-2 (C) 4.0 19:24:13 10° NW 19:31:30 81° NE 19:38:47 15° SE
Cosmos 1626 3.9 19:28:48 10° NNW 19:32:02 32° W 19:35:14 10° SSW
Cosmos 1733 3.1 19:29:17 10° S 19:33:00 63° E 19:36:45 10° NNE
Landsat 7 3.8 19:29:22 10° SSE 19:34:05 84° WSW 19:38:50 10° NNW
Cosmos 1271 Rocket 4.4 19:36:59 17° ENE 19:36:59 17° ENE 19:38:37 10° NE
Cosmos 2227 Rocket 3.3 19:35:02 17° SE 19:37:04 21° E 19:41:11 10° NE
CZ-4 R/B 3.0 19:34:44 10° SSW 19:38:14 34° W 19:41:49 10° NNW
Cosmos 2056 Rocket 4.1 19:34:19 10° SW 19:39:22 59° WNW 19:44:26 10° NNE
Iridium 4 Rocket 2.9 19:37:56 10° N 19:42:10 88° E 19:46:19 10° S
Cosmos 192 4.3 19:38:03 10° SSW 19:42:57 66° ESE 19:47:52 10° NNE
Cosmos 2098 Rocket 3.8 19:37:47 10° S 19:43:15 88° E 19:49:52 10° N
Terra 3.6 19:42:45 15° ENE 19:43:47 15° NE 19:46:31 10° NNE
Cosmos 1802 Rocket 4.4 19:38:36 10° NNW 19:44:47 67° W 19:51:03 10° S
Geosat 3.9 19:40:50 17° SE 19:44:48 80° ENE 19:49:52 10° NNW
USA 238 DEB 3.9 19:37:56 10° NW 19:45:10 80° NE 19:50:50 20° SE
USA 238 3.9 19:38:02 10° NW 19:45:16 79° NE 19:50:55 20° SE
Resurs 1-3 3.9 19:42:12 10° S 19:46:33 70° WSW 19:50:57 10° NNW
SL-16 R/B 3.1 19:41:38 10° NNW 19:46:51 35° NE 19:49:39 22° E
MetOp-A 4.5 19:46:21 22° SE 19:49:18 43° ENE 19:54:12 10° N
Cosmos 1674 Rocket 4.2 19:47:31 10° N 19:51:31 35° ENE 19:52:41 30° ESE
Cosmos 1850 Rocket 4.2 19:47:04 10° NNW 19:52:24 75° WSW 19:57:17 12° SSE
Meteor 2-10 3.9 19:49:21 10° S 19:54:23 85° E 19:59:31 10° NNE
Cosmos 1733 Rocket 3.4 19:53:01 24° SSE 19:55:08 41° E 19:59:12 10° NNE
Okean-O 2.7 19:52:23 10° S 19:56:48 76° WSW 20:01:16 10° NNW
Okean 2 3.8 19:53:49 10° NNW 19:57:51 62° W 20:01:52 10° S
Cosmos 2016 Rocket 4.4 19:52:04 10° NNW 19:58:05 63° W 20:04:07 10° S
NOSS 0 Rocket 4.4 19:53:14 10° NW 19:59:20 61° WSW 20:05:07 11° SSE
CARTOSAT-1 3.8 19:58:45 32° SE 20:00:21 51° ENE 20:04:33 10° N
SPOT 1/Viking Rocket 3.5 19:55:57 13° SSE 20:00:33 88° ENE 20:05:48 10° NNW
Cosmos 1110 Rocket 3.9 19:56:44 10° S 20:01:51 60° ESE 20:06:57 10° NNE
Cosmos 1378 Rocket 3.9 19:58:34 10° N 20:02:50 46° ENE 20:04:03 36° ESE
SPOT 5 3.7 20:02:23 27° E 20:03:19 30° ENE 20:07:30 10° N
Cosmos 2123 Rocket 4.3 19:57:34 10° SSW 20:03:51 72° WNW 20:10:13 10° N
Cosmos 2221 Rocket 3.7 19:59:33 10° N 20:03:55 54° ENE 20:05:26 36° SE
Okean O Rocket 3.8 20:01:37 10° SSW 20:05:20 26° W 20:09:03 10° NW
BREEZE-M DEB (TANK) 2.7 20:02:09 10° W 20:07:47 62° SSW 20:08:22 50° SE
ISS -3.8 20:04:48 10° W 20:08:10 82° N 20:08:42 60° ENE
GEOS 3 Rocket 4.3 20:03:02 10° NE 20:08:20 59° NW 20:13:37 10° WSW
Cosmos 1447 Rocket 4.4 20:10:36 10° S 20:16:46 69° E 20:22:55 10° NNE
USA 215 3.7 20:10:32 11° ENE 20:16:47 59° N 20:23:10 10° W
Cosmos 1452 Rocket 3.5 20:11:37 10° SSW 20:16:54 83° WNW 20:22:13 10° NNE
USA 186 4.4 20:15:03 10° SW 20:17:23 20° W 20:19:46 10° NW
ADEOS Rocket 3.9 20:15:26 29° E 20:17:47 38° ENE 20:24:10 10° N
Cosmos 1766 3.0 20:17:38 50° SSE 20:18:29 72° E 20:22:18 10° NNE
Cosmos 1331 Rocket 3.8 20:13:40 10° SSW 20:18:48 75° ESE 20:23:59 10° NNE
Cosmos 2237 Rocket 2.5 20:16:12 10° NW 20:21:47 63° WSW 20:25:11 24° S
H-2A R/B 2.8 20:23:55 49° E 20:24:26 53° ENE 20:28:48 10° N
Meteor 1-15 Rocket 4.4 20:24:43 36° SE 20:26:38 50° E 20:32:18 10° NNE
MetOp-B 4.0 20:29:53 41° SSE 20:31:50 77° ENE 20:37:13 10° NNW
ATLAS CENTAUR R/B 4.1 20:17:12 10° SW 20:33:00 82° SSE 20:40:10 10° ENE
Cosmos 2346 Rocket 4.5 20:31:22 36° SSE 20:33:41 57° E 20:39:45 10° NNE
Cosmos 968 Rocket 3.5 20:30:28 10° NNW 20:35:39 75° WSW 20:37:26 41° S
Lacrosse 5 rocket 2.5 20:32:10 10° SW 20:34:34 30° SSW 20:34:34 30° SSW
SJ 16-02 2.4 20:32:33 10° N 20:36:14 32° NE 20:36:14 32° NE
Meteor 1-12 Rocket 4.2 20:38:17 38° SSE 20:40:29 65° E 20:46:09 10° NNE
Cosmos 1975 Rocket 4.4 20:37:03 10° N 20:39:54 26° NE 20:39:54 26° NE
FALCON 9 R/B 4.2 20:25:42 10° WSW 20:42:14 31° SSW 20:45:16 25° SSE
Cosmos 1726 4.2 20:40:01 10° SW 20:43:01 26° WNW 20:46:03 10° NNW
ERS-1 Rocket 3.1 20:44:49 53° E 20:45:04 53° ENE 20:49:58 10° N
Cosmos 1513 Rocket 4.3 20:39:28 10° N 20:45:35 83° E 20:47:45 43° SSE
Meteor 1-24 Rocket 3.8 20:39:50 10° N 20:45:46 72° ENE 20:47:15 51° SE
Meteor 2-15 4.3 20:43:44 10° N 20:49:56 83° E 20:51:48 48° SSE
BREEZE-M DEB (TANK) 3.0 20:43:44 10° WNW 20:50:07 70° SSW 20:50:43 61° SSE
Landsat 5 4.3 20:46:41 10° N 20:50:23 45° WNW 20:53:40 13° SW
Ariane Rocket 2.9 20:49:52 59° SSE 20:50:51 89° WSW 20:55:57 10° NNW
Spot 2 4.3 20:51:12 69° ESE 20:51:36 73° ENE 20:56:29 10° NNW
Meteor 2-8 Rocket 4.3 20:45:33 10° N 20:51:43 78° ENE 20:53:21 51° SSE
Cosmos 482 Debris 4.5 20:48:20 10° WNW 20:52:59 69° W 20:52:59 69° W
Cosmos 1943 4.1 20:48:46 10° NNW 20:53:53 34° NE 20:54:31 33° ENE
Meteor 2-15 Rocket 4.3 20:49:40 10° N 20:55:51 72° ENE 20:57:02 57° SE
Spot 2 Rocket 3.4 21:01:35 71° E 21:01:41 72° ENE 21:06:47 10° NNW
Cosmos 1302 Rocket 3.9 21:02:14 61° SSW 21:03:12 85° ESE 21:08:32 10° NNE
Cosmos 2297 Rocket 2.5 20:59:07 10° SW 21:04:45 67° WNW 21:10:25 10° NNE
Resurs 01 Rocket 3.5 21:03:27 17° SW 21:05:51 27° W 21:09:38 10° NW
Cosmos 2034 Rocket 3.8 21:00:55 10° N 21:07:08 72° ENE 21:07:51 65° ESE
Cosmos 1867 4.1 21:02:27 10° WSW 21:07:50 59° NW 21:13:16 10° NE
Cosmos 1271 Rocket 3.9 21:11:48 40° WNW 21:11:48 40° WNW 21:15:03 10° N
Cosmos 2219 3.3 21:13:55 60° ENE 21:13:55 60° ENE 21:18:38 10° NNE
SPOT 3 Rocket 3.5 21:12:40 75° SSW 21:13:02 80° WSW 21:18:18 10° NNW
Meteor 2-5 Rocket 4.0 21:07:23 10° NNW 21:13:10 70° W 21:14:30 52° SSW
Cosmos 1470 4.1 21:15:43 36° N 21:15:43 36° N 21:18:12 10° N
ATLAS 3B R/B 3.9 21:07:28 10° NW 21:14:22 39° NNE 21:17:41 27° ENE
Meteor 2-19 Rocket 4.5 21:15:20 60° ENE 21:15:20 60° ENE 21:21:02 10° NNE
CZ-4C R/B 2.8 21:13:18 10° NW 21:20:16 83° NE 21:21:59 59° ESE
Cosmos 2227 Rocket 2.2 21:14:49 10° SW 21:20:29 79° WNW 21:26:12 10° NNE
Terra 2.1 21:21:29 64° N 21:21:29 64° N 21:25:30 10° NNW
Cosmos 1503 Rocket 4.3 21:22:19 10° NNW 21:26:52 58° NNE 21:26:52 58° NNE
SL-16 R/B 2.5 21:25:41 10° NW 21:31:14 55° WSW 21:31:32 55° SW
Cosmos 1486 Rocket 4.3 21:33:29 10° NNW 21:38:14 64° WNW 21:38:14 64° WNW
SPOT 5 3.8 21:41:34 41° W 21:41:34 41° W 21:45:49 10° NNW
ISS -0.4 21:41:37 10° W 21:41:38 10° W 21:41:38 10° W
H-2A R/B 4.2 21:50:20 10° NNE 21:51:45 20° NNE 21:51:45 20° NNE
Cosmos 2279 Rocket 4.4 21:51:13 10° N 21:56:22 52° NE 21:56:22 52° NE
USA 215 3.7 21:57:51 47° NE 21:59:22 58° N 22:05:45 10° WNW
ADEOS Rocket 3.6 22:02:22 52° WSW 22:03:02 54° W 22:09:55 10° NNW
Cosmos 2263 Rocket 3.8 22:13:19 25° NNE 22:13:19 25° NNE 22:15:32 10° NNE
SJ 16-02 3.5 22:11:02 10° NW 22:13:07 24° WNW 22:13:07 24° WNW
ATLAS 2AS CENTAUR R/B 4.4 22:29:01 23° ENE 22:29:01 23° ENE 22:31:34 10° NE
Cosmos 1943 4.4 22:32:43 10° NW 22:36:19 38° WNW 22:36:19 38° WNW
NOSS 3-4 (A) 4.2 22:42:49 48° NW 22:42:55 48° NNW 22:49:07 10° NE
NOSS 3-4 (C) 4.1 22:43:06 48° NNW 22:43:06 48° NNW 22:49:14 10° NE
ATLAS CENTAUR R/B 3.8 22:37:29 10° W 22:48:30 55° NNW 22:49:44 49° NNE
Terra 4.4 23:00:14 13° WNW 23:00:14 13° WNW 23:01:35 10° NW
Cosmos 2082 Rocket 4.4 22:57:41 10° N 23:01:15 17° NNE 23:02:28 16° NE
NOSS 3-1 (A) 4.5 22:56:29 10° NW 23:03:09 50° NNE 23:03:39 50° NE
Cosmos 2227 Rocket 4.4 23:01:09 10° W 23:05:29 22° NW 23:09:49 10° NNE
ATLAS 3B R/B 3.1 22:58:28 10° NW 23:04:56 68° NNW 23:04:56 68° NNW
CZ-4C R/B 4.1 23:02:09 10° WNW 23:07:09 32° W 23:07:09 32° W
Cosmos 1833 Rocket 4.3 23:09:08 10° NNW 23:12:54 29° NNE 23:12:54 29° NNE
Cosmos 2344 4.0 23:10:22 10° NW 23:18:50 81° SW 23:18:50 81° SW
USA 215 4.3 23:45:11 36° WNW 23:45:11 36° WNW 23:48:48 10° WNW
NOSS 3-1 (C) 4.5 23:43:12 10° NW 23:48:11 51° NW 23:48:11 51° NW
Cosmos 2263 Rocket 4.0 23:54:56 26° NNW 23:54:56 26° NNW 23:59:09 10° NNE
